Location: The Saddle
(36.8333°N, 80.3417°W)
Time: 08:41:56
(UTC-05:00)

A-11 Canister half - Visible Passes

Search period start: 22 January 2026 00:00
Search period end: 01 February 2026 00:00
Orbit: 1511 x 1688 km, 47.2° (Epoch: 22 January)

Date Brightness Start Highest point End Pass type
(mag) Time Alt. Az. Time Alt. Az. Time Alt. Az.
22 Jan 11.2 02:10:10 11° E 02:10:10 11° E 02:10:23 10° E visible
22 Jan 9.0 04:08:22 72° E 04:08:22 72° E 04:16:50 10° ENE visible
22 Jan 9.2 06:06:35 22° W 06:12:53 52° NNW 06:21:55 10° ENE visible
23 Jan 9.4 03:46:52 54° ENE 03:46:52 54° ENE 03:53:47 10° ENE visible
23 Jan 9.2 05:45:04 31° WNW 05:49:46 53° NNW 05:58:50 10° ENE visible
24 Jan 9.9 03:25:17 40° ENE 03:25:17 40° ENE 03:30:45 10° ENE visible
24 Jan 9.1 05:23:29 41° WNW 05:26:39 55° NNW 05:35:47 10° ENE visible
25 Jan 10.3 03:03:38 30° ENE 03:03:38 30° ENE 03:07:41 10° ENE visible
25 Jan 9.1 05:01:49 51° NW 05:03:32 57° NNW 05:12:43 10° ENE visible
25 Jan 9.5 07:01:01 10° WNW 07:10:00 45° N 07:18:45 10° ENE visible
26 Jan 10.7 02:41:56 22° ENE 02:41:56 22° ENE 02:44:38 10° ENE visible
26 Jan 9.0 04:40:07 59° NNW 04:40:26 59° NNW 04:49:40 10° ENE visible
26 Jan 9.5 06:38:19 12° WNW 06:46:51 45° N 06:55:37 10° ENE visible
27 Jan 11.0 02:20:11 15° ENE 02:20:11 15° ENE 02:21:33 10° ENE visible
27 Jan 9.2 04:18:22 58° N 04:18:22 58° N 04:26:37 10° ENE visible
27 Jan 9.5 06:16:34 17° WNW 06:23:42 44° N 06:32:29 10° ENE visible
28 Jan 11.3 01:58:24 10° ENE 01:58:24 10° ENE 01:58:29 10° ENE visible
28 Jan 9.5 03:56:35 51° NNE 03:56:35 51° NNE 04:03:35 10° ENE visible
28 Jan 9.5 05:54:46 23° WNW 06:00:34 44° N 06:09:21 10° ENE visible
29 Jan 9.8 03:34:46 41° NE 03:34:46 41° NE 03:40:31 10° ENE visible
29 Jan 9.5 05:32:57 29° NW 05:37:25 45° N 05:46:14 10° ENE visible
30 Jan 10.2 03:12:56 33° NE 03:12:56 33° NE 03:17:28 10° ENE visible
30 Jan 9.5 05:11:07 35° NW 05:14:15 45° N 05:23:07 10° ENE visible
31 Jan 10.5 02:51:05 25° NE 02:51:05 25° NE 02:54:26 10° ENE visible
31 Jan 9.4 04:49:16 41° NNW 04:51:07 45° N 05:00:00 10° ENE visible
31 Jan 9.4 06:48:13 10° WNW 06:57:34 58° NNE 07:06:38 10° E visible
